Location: Launay
(47.2429°N, 1.5727°E)
Time: 20:46:26
(UTC+00:00)

Cosmos 220 Rocket - Pass Details

Date: 19 May 2025
Orbit: 546 x 580 km, 74.0° (Epoch: 18 June)

Event Time Altitude Azimuth Distance (km) Brightness Sun altitude
Exits shadow 21:57:15 36° 191° (S) 892 4.5 -18.1°
Maximum altitude 21:58:51 78° 111° (ESE) 569 3.7 -18.3°
Drops below altitude 10° 22:02:54 10° 25° (NNE) 1,831 7.0 -18.6°
Sets 22:05:05 0° 24° (NNE) 2,727 8.0 -18.7°
